Tracking 28081 objects as of 26-Sep-2023
HD Live streaming from Space Station
objects crossing your sky now

STARLINK-1992

Track STARLINK-1992 now!
10-day predictions
STARLINK-1992 is classified as:


NORAD ID: 47632
Int'l Code: 2021-012N
Perigee: 553.6 km
Apogee: 555.1 km
Inclination: 53.1 °
Period: 95.6 minutes
Semi major axis: 6925 km
RCS: Unknown
Launch date: February 16, 2021
Source: United States (US)
Launch site: AIR FORCE EASTERN TEST RANGE (AFETR)
Your satellite tracking list
Your tracking list is empty




NASA's NSSDC Master Catalog

Two Line Element Set (TLE):
1 47632U 21012N   23268.66044765  .00034837  00000-0  23459-2 0  9997
2 47632  53.0548  39.0475 0001057 107.1456 252.9649 15.06403750145743
Source of the keplerian elements: AFSPC